Regional Weather Roundup
Issued by NWS Little Rock, AR

Home | Current Version | Previous Version | Graphics & Text | Print | Product List | Glossary On
Versions: 1 2 3 4 5 6 7 8 9 10 11 12 13 14 15 16 17 18 19 20 21 22 23 24 25 26 27 28 29 30 31 32 33 34 35 36 37 38 39 40 41 42 43 44 45 46 47 48 49 50
000
ASUS44 KLZK 211010
RWRLZK
ARKANSAS STATE WEATHER ROUNDUP
NATIONAL WEATHER SERVICE LITTLE ROCK AR
ISSUED BY NATIONAL WEATHER SERVICE MEMPHIS TN
500 AM CDT THU SEP 21 2017

NOTE: "FAIR" INDICATES FEW OR NO CLOUDS BELOW 12,000 FEET WITH NO
SIGNIFICANT WEATHER AND/OR OBSTRUCTIONS TO VISIBILITY.

ARZ001-003-010-029-211100-
NORTHWEST ARKANSAS

CITY           SKY/WX    TMP DP  RH WIND       PRES   REMARKS
FORT SMITH     CLEAR     74  72  93 NE3       29.93R
HARRISON       CLEAR     70  69  97 SE5       29.99S
BENTONVILLE    CLEAR     73  70  90 S3        29.98S
ROGERS         CLEAR     72  70  93 SE9       29.97S
SILOAM SPGS    CLEAR     72  70  93 SE6       29.96S
HIGHFILL       CLEAR     71  69  93 CALM      29.96S
$$

ARZ004-005-016-211100-
NORTH CENTRAL ARKANSAS

CITY           SKY/WX    TMP DP  RH WIND       PRES   REMARKS
BATESVILLE     CLEAR    N/A N/A N/A E3        30.00R
FLIPPIN        CLEAR     72  69  90 CALM      29.98R
MTN HOME       CLEAR     72  71  97 CALM      29.98R
$$

ARZ040-041-211100-
WEST CENTRAL ARKANSAS

CITY           SKY/WX    TMP DP  RH WIND       PRES   REMARKS
MOUNT IDA      CLEAR     76  70  82 CALM      29.95R
$$

ARZ017-025-026-028-211100-
NORTHEAST ARKANSAS

CITY           SKY/WX    TMP DP  RH WIND       PRES   REMARKS
JONESBORO      CLEAR     69  69 100 CALM      30.00R
NEWPORT        CLEAR     70  70 100 SE3       30.00R FOG
BLYTHEVILLE    CLEAR     73  72  96 S5        30.02R
$$

ARZ022-033-042-044-211100-
CENTRAL ARKANSAS

CITY           SKY/WX    TMP DP  RH WIND       PRES   REMARKS
LITTLE ROCK    CLEAR     72  72 100 SE3       29.98S
JACKSONVILLE   CLEAR     73  73 100 CALM      29.97S
SEARCY         CLEAR     71  71 100 CALM      30.00S FOG
HOT SPRINGS    CLEAR     75  71  87 CALM      29.98R
RUSSELLVILLE   CLEAR     73  71  93 CALM      29.95S
$$

ARZ036-211100-
EAST ARKANSAS

CITY           SKY/WX    TMP DP  RH WIND       PRES   REMARKS
WEST MEMPHIS   CLEAR     71  71 100 S3        30.00R
$$

ARZ050-070-073-211100-
SOUTHWEST ARKANSAS

CITY           SKY/WX    TMP DP  RH WIND       PRES   REMARKS
TEXARKANA      CLEAR     73  72  96 S6        29.95R
EL DORADO      CLEAR     71  71 100 SE3       29.98R
DEQUEEN        CLEAR     72  72 100 CALM      29.94R
$$

ARZ056-057-069-211100-
SOUTHEAST ARKANSAS

CITY           SKY/WX    TMP DP  RH WIND       PRES   REMARKS
PINE BLUFF     CLEAR     72  71  97 CALM      29.99R
STUTTGART      CLEAR     72  71  97 SE3       30.00R
MONTICELLO     CLEAR     73  71  93 CALM      30.00R
$$





USA.gov is the U.S. government's official web portal to all federal, state and local government web resources and services.